Regional Weather Roundup
Issued by NWS

Home | Current Version | Previous Version | Graphics & Text | Print | Product List | Glossary On
Versions: 1 2 3 4 5 6 7 8 9 10 11 12 13 14 15 16 17 18 19 20 21 22 23 24 25 26 27 28 29 30 31 32 33 34 35 36 37 38 39 40 41 42 43 44 45 46 47 48 49 50
000
ASUS45 KBOU 032007
RWRCO

WEATHER ROUNDUP FOR COLORADO
NATIONAL WEATHER SERVICE DENVER/BOULDER CO
200 PM MDT WED JUN 03 2015

NOTE: "FAIR" INDICATES FEW OR NO CLOUDS BELOW 12000 FEET WITH NO
SIGNIFICANT WEATHER AND/OR OBSTRUCTIONS TO VISIBILITY.

COZ001>005-013-030-031-032100-
...NORTHWEST COLORADO...

CITY           SKY/WX    TMP DP  RH WIND       PRES   REMARKS
CRAIG          SUNNY     80  36  20 VRB6      29.94F
HAYDEN         SUNNY     75  30  19 SE3       29.97F
MEEKER         SUNNY     80  21  11 SW12      29.96F
MOUNT WERNER   NOT AVBL
STEAMBOAT SPGS SUNNY     75  27  16 NE6       29.99F
WALDEN         MOSUNNY   70  19  14 S13       30.10F
$$

COZ006>008-011-032100-
...WEST CENTRAL VALLEYS...

CITY           SKY/WX    TMP DP  RH WIND       PRES   REMARKS
GRAND JUNCTION SUNNY     83  26  12 NW5       29.86F
MONTROSE       SUNNY     85  17   8 W17G26    29.94F
EAGLE          MOSUNNY   88  32  13 SW13G20   29.98F
RIFLE          SUNNY     83  27  13 NW5       29.90F
DELTA          SUNNY     89  17   7 SW9G18    29.91F
NUCLA          SUNNY     81  19  10 SW10G23   30.00F
$$

COZ017>023-064>068-032100-
...SOUTHWEST COLORADO...

CITY           SKY/WX    TMP DP  RH WIND       PRES   REMARKS
DURANGO        SUNNY     77   8   7 W9G16     30.09F
CORTEZ         SUNNY     81  10   7 SW12G29   30.02F
PAGOSA SPRINGS SUNNY     72   5   7 S5        30.17S
TELLURIDE      SUNNY     68  10  10 SE7G18    30.20F
WOLF CREEK PAS NOT AVBL
$$

COZ009-010-012-014-032>034-037-058>063-032100-
...CENTRAL COLORADO...

CITY           SKY/WX    TMP DP  RH WIND       PRES   REMARKS
ASPEN          MOSUNNY   74  20  13 NW3G18    30.06F
BUENA VISTA    MOSUNNY   74  18  12 SE13G22   30.11S
COPPER MTN     MOSUNNY   59  10  14 SE16G26   30.37F
BERTHOUD PASS  FAIR      43  36  75 MISG      30.43F
COTTONWOOD PAS NOT AVBL
GUNNISON       MOSUNNY   73  23  15 E7        30.10F
KREMMLING      SUNNY     77  14   9 NW3       30.04F
LEADVILLE      MOSUNNY   65  15  14 SE9       30.21F
MONARCH PASS   MOSUNNY   54  19  26 S13G20    30.50S
SALIDA         MOSUNNY   79  22  11 SE15G22   30.14F
SUNLIGHT       SUNNY     61  21  21 CALM      30.31S
WILKERSON PASS PTSUNNY   61  23  23 S8        30.37F
$$

COZ069>075-032100-
...SAN LUIS VALLEY/SANGRE DE CRISTO MOUNTAINS...

CITY           SKY/WX    TMP DP  RH WIND       PRES   REMARKS
ALAMOSA        MOSUNNY   79  11   7 S12G25    30.10F
LA VETA PASS   PTSUNNY  N/A N/A N/A MISG      30.33F
SAGUACHE       MOSUNNY   73  23  15 S10G22    30.13F
$$

COZ035-036-038>040-032100-
...NORTHERN COLORADO FRONT RANGE...

CITY           SKY/WX    TMP DP  RH WIND       PRES   REMARKS
DENVER INTL AP PTSUNNY   70  57  63 SE13      30.03F
DMNS CITY PARK   N/A     74  56  52 SE5G13    30.01F
AURORA         PTSUNNY   69  55  60 E9        30.05F
FRONT RANGE AP PTSUNNY   70  57  64 E9        30.05F
ERIE MUNI ARPT PTSUNNY   72  53  50 E5        30.02F
BOULDER MUN AP SUNNY     72  54  53 NE9       30.01F
CENTENNIAL     CLOUDY    71  55  56 E6        30.04F
BROOMFIELD     PTSUNNY   72  54  53 CALM      30.05F
FORT COLLINS   PTSUNNY   72  55  56 SE9       30.01F
LONGMONT       MOSUNNY   76  52  43 CALM      30.02F
$$

COZ041-046-047-076>085-087-088-032100-
...PIKES PEAK/PALMER DIVIDE AND SOUTHERN FOOTHILLS...

CITY           SKY/WX    TMP DP  RH WIND       PRES   REMARKS
COLO. SPRINGS  PTSUNNY   74  50  42 E16       30.07S
A. F. ACADEMY  MOSUNNY   72  49  43 E15       30.06F
ELLICOTT       SUNNY    N/A N/A N/A E13G22    30.06S
FALCON         SUNNY     71  51  49 E12G20    30.12F
FORT CARSON    NOT AVBL
LIMON          PTSUNNY   69  57  65 NE13      30.05F
MONUMENT HILL  SUNNY     64  52  63 NW10G17   30.12F
TRINIDAD       MOSUNNY   80  55  42 E10       30.01F
$$

COZ042>045-048>051-090-091-032100-
...NORTHEAST COLORADO...

CITY           SKY/WX    TMP DP  RH WIND       PRES   REMARKS
GREELEY ARPT   MOSUNNY   75  57  53 SE12G17   30.01F
AKRON          MOSUNNY   74  57  55 MISG      30.01F
BURLINGTON     PTSUNNY   74  59  59 NE16      29.98F
WRAY           PTSUNNY   78  57  48 E7        29.98S
STERLING       PTSUNNY   73  55  53 CALM      29.98F
HOLYOKE        MOSUNNY   79  57  47 E12       29.99F
FORT MORGAN    SUNNY     73  53  49 CALM      30.02F
$$

COZ086-089-092>099-032100-
...SOUTHEAST COLORADO...

CITY           SKY/WX    TMP DP  RH WIND       PRES   REMARKS
PUEBLO         MOSUNNY   78  57  48 E12G22    29.97F
LA JUNTA       PTSUNNY   78  60  53 NE15G24   29.95F
LAMAR          PTSUNNY   77  62  59 N13       29.91F
SPRINGFIELD      N/A     79  62  56 N20       29.93S
$$


USA.gov is the U.S. government's official web portal to all federal, state and local government web resources and services.